Location: Alpha Ridge Park
(39.3209°N, 76.9128°W)
Time: 21:38:19
(UTC-04:00)

Vanguard 2 Rocket - Pass Details

Date: 25 May 2019
Orbit: 554 x 3326 km, 32.9° (Epoch: 17 June)

Event Time Altitude Azimuth Distance (km) Brightness Sun altitude
Rises 12:24:22 0° 277° (W) 5,399 10.7 69.7°
Reaches altitude 10° 12:29:29 10° 265° (W) 3,839 10.2 70.2°
Maximum altitude 12:36:00 21° 220° (SW) 2,345 9.5 70.7°
Drops below altitude 10° 12:40:35 10° 172° (S) 2,577 9.7 71.0°
Sets 12:43:14 0° 155° (SSE) 3,240 10.0 71.1°
